******** Week 144 almanac for PRN-1 ******** ID: 1 Health: 0 Eccentricity: 0.01126003265 Time of Applicability(s): 589824 Orbital Inclination(rad): 0.9864119646 Rate of Right Ascen(r/s): -7.931758961e-09 SQRT(A) (m 1/2): 5153.625488 Right Ascen at Week(rad): -1.287719198 Argument of Perigee(rad): 0.8822498009 Mean Anom(rad): -2.270360476 Af0(s): 0.0003610099976 Af1(s/s): -1.091394e-11 week: 144 ******** Week 144 almanac for PRN-2 ******** ID: 2 Health: 0 Eccentricity: 0.02068805695 Time of Applicability(s): 589824 Orbital Inclination(rad): 0.9647384938 Rate of Right Ascen(r/s): -8.091765626e-09 SQRT(A) (m 1/2): 5153.624512 Right Ascen at Week(rad): -1.376391976 Argument of Perigee(rad): -1.45712146 Mean Anom(rad): -2.10807572 Af0(s): -0.0005124985352 Af1(s/s): 0 week: 144 ******** Week 144 almanac for PRN-3 ******** ID: 3 Health: 0 Eccentricity: 0.003866672516 Time of Applicability(s): 589824 Orbital Inclination(rad): 0.9725462164 Rate of Right Ascen(r/s): -7.520313251e-09 SQRT(A) (m 1/2): 5153.659668 Right Ascen at Week(rad): -0.2522537031 Argument of Perigee(rad): 0.975880303 Mean Anom(rad): 2.845498036 Af0(s): -6.330864258e-05 Af1(s/s): -1.455192e-11 week: 144 ******** Week 144 almanac for PRN-4 ******** ID: 4 Health: 0 Eccentricity: 0.001646995544 Time of Applicability(s): 589824 Orbital Inclination(rad): 0.9609934236 Rate of Right Ascen(r/s): -7.760323248e-09 SQRT(A) (m 1/2): 5153.604492 Right Ascen at Week(rad): 0.828496058 Argument of Perigee(rad): -3.103574199 Mean Anom(rad): -0.4497604707 Af0(s): -0.0001537495605 Af1(s/s): 0 week: 144 ******** Week 144 almanac for PRN-5 ******** ID: 5 Health: 0 Eccentricity: 0.005898475647 Time of Applicability(s): 589824 Orbital Inclination(rad): 0.9595313481 Rate of Right Ascen(r/s): -7.680319916e-09 SQRT(A) (m 1/2): 5153.606445 Right Ascen at Week(rad): -0.2922289578 Argument of Perigee(rad): 1.012670375 Mean Anom(rad): 0.3760769619 Af0(s): -5.351087646e-05 Af1(s/s): 0 week: 144 ******** Week 144 almanac for PRN-6 ******** ID: 6 Health: 0 Eccentricity: 0.002633094788 Time of Applicability(s): 589824 Orbital Inclination(rad): 0.985794777 Rate of Right Ascen(r/s): -7.908900866e-09 SQRT(A) (m 1/2): 5153.605957 Right Ascen at Week(rad): -1.295989811 Argument of Perigee(rad): -0.9994660067 Mean Anom(rad): -1.902689325 Af0(s): 0.000135661377 Af1(s/s): 1.091394e-11 week: 144 ******** Week 144 almanac for PRN-7 ******** ID: 7 Health: 0 Eccentricity: 0.01543664932 Time of Applicability(s): 589824 Orbital Inclination(rad): 0.9505491716 Rate of Right Ascen(r/s): -7.943188008e-09 SQRT(A) (m 1/2): 5153.638672 Right Ascen at Week(rad): 1.848042383 Argument of Perigee(rad): -2.295820588 Mean Anom(rad): -2.932264573 Af0(s): 0.0002389147583 Af1(s/s): 3.637979e-12 week: 144 ******** Week 144 almanac for PRN-8 ******** ID: 8 Health: 0 Eccentricity: 0.007128715515 Time of Applicability(s): 589824 Orbital Inclination(rad): 0.9652118707 Rate of Right Ascen(r/s): -7.966046103e-09 SQRT(A) (m 1/2): 5153.660156 Right Ascen at Week(rad): -2.367316601 Argument of Perigee(rad): 0.07992429395 Mean Anom(rad): 0.02823895347 Af0(s): -4.14520874e-05 Af1(s/s): 0 week: 144 ******** Week 144 almanac for PRN-9 ******** ID: 9 Health: 0 Eccentricity: 0.002331733704 Time of Applicability(s): 589824 Orbital Inclination(rad): 0.9540186047 Rate of Right Ascen(r/s): -7.817468486e-09 SQRT(A) (m 1/2): 5153.581055 Right Ascen at Week(rad): 0.7757875644 Argument of Perigee(rad): 1.858017003 Mean Anom(rad): 0.3603750057 Af0(s): -0.0002826278686 Af1(s/s): 0 week: 144 ******** Week 144 almanac for PRN-10 ******** ID: 10 Health: 0 Eccentricity: 0.007433414459 Time of Applicability(s): 589824 Orbital Inclination(rad): 0.9723784372 Rate of Right Ascen(r/s): -7.531742299e-09 SQRT(A) (m 1/2): 5153.639648 Right Ascen at Week(rad): -0.2550505216 Argument of Perigee(rad): -2.536386301 Mean Anom(rad): 2.004600552 Af0(s): -0.0002328853638 Af1(s/s): -1.091394e-11 week: 144 ******** Week 144 almanac for PRN-11 ******** ID: 11 Health: 255 Eccentricity: 0.0002970695496 Time of Applicability(s): 589824 Orbital Inclination(rad): 0.9615207295 Rate of Right Ascen(r/s): -8.137481816e-09 SQRT(A) (m 1/2): 5153.708984 Right Ascen at Week(rad): -1.243210536 Argument of Perigee(rad): 2.849415379 Mean Anom(rad): -0.1101855854 Af0(s): -3.69300415e-05 Af1(s/s): -3.637979e-11 week: 144 ******** Week 144 almanac for PRN-12 ******** ID: 12 Health: 0 Eccentricity: 0.008579730987 Time of Applicability(s): 589824 Orbital Inclination(rad): 0.9710302119 Rate of Right Ascen(r/s): -7.497455156e-09 SQRT(A) (m 1/2): 5153.57959 Right Ascen at Week(rad): 2.960424131 Argument of Perigee(rad): 1.237709776 Mean Anom(rad): 2.68605429 Af0(s): -0.0001236025879 Af1(s/s): -7.275958e-12 week: 144 ******** Week 144 almanac for PRN-13 ******** ID: 13 Health: 0 Eccentricity: 0.005791187286 Time of Applicability(s): 589824 Orbital Inclination(rad): 0.9683876903 Rate of Right Ascen(r/s): -7.703178011e-09 SQRT(A) (m 1/2): 5153.618652 Right Ascen at Week(rad): 0.9281426411 Argument of Perigee(rad): 0.9704709235 Mean Anom(rad): -0.5871566133 Af0(s): 0.0001944479736 Af1(s/s): 7.275958e-12 week: 144 ******** Week 144 almanac for PRN-14 ******** ID: 14 Health: 0 Eccentricity: 0.001330375671 Time of Applicability(s): 589824 Orbital Inclination(rad): 0.9544260683 Rate of Right Ascen(r/s): -7.646032773e-09 SQRT(A) (m 1/2): 5153.601074 Right Ascen at Week(rad): 2.929634785 Argument of Perigee(rad): 3.039156743 Mean Anom(rad): 2.72827022 Af0(s): -5.652557373e-05 Af1(s/s): -3.637979e-12 week: 144 ******** Week 144 almanac for PRN-15 ******** ID: 15 Health: 0 Eccentricity: 0.013920784 Time of Applicability(s): 589824 Orbital Inclination(rad): 0.9299363047 Rate of Right Ascen(r/s): -8.023191341e-09 SQRT(A) (m 1/2): 5153.664062 Right Ascen at Week(rad): 0.6705503404 Argument of Perigee(rad): 1.070192783 Mean Anom(rad): -0.9853912835 Af0(s): -7.235273437e-05 Af1(s/s): 3.637979e-12 week: 144 ******** Week 144 almanac for PRN-16 ******** ID: 16 Health: 0 Eccentricity: 0.01264381409 Time of Applicability(s): 589824 Orbital Inclination(rad): 0.9710062435 Rate of Right Ascen(r/s): -7.508884204e-09 SQRT(A) (m 1/2): 5153.54834 Right Ascen at Week(rad): 2.979050238 Argument of Perigee(rad): 0.6974721526 Mean Anom(rad): 0.8301225421 Af0(s): -0.0003602563232 Af1(s/s): -3.637979e-12 week: 144 ******** Week 144 almanac for PRN-17 ******** ID: 17 Health: 0 Eccentricity: 0.0137219429 Time of Applicability(s): 589824 Orbital Inclination(rad): 0.9802400888 Rate of Right Ascen(r/s): -7.828897533e-09 SQRT(A) (m 1/2): 5153.696777 Right Ascen at Week(rad): -2.285880422 Argument of Perigee(rad): -1.50837387 Mean Anom(rad): -0.06849583747 Af0(s): 0.0004439141724 Af1(s/s): 3.637979e-12 week: 144 ******** Week 144 almanac for PRN-18 ******** ID: 18 Health: 0 Eccentricity: 0.002087116241 Time of Applicability(s): 589824 Orbital Inclination(rad): 0.9702033004 Rate of Right Ascen(r/s): -8.068907531e-09 SQRT(A) (m 1/2): 5153.579102 Right Ascen at Week(rad): -1.279441095 Argument of Perigee(rad): 3.110785707 Mean Anom(rad): -2.084097908 Af0(s): 0.0002057530884 Af1(s/s): -7.275958e-12 week: 144 ******** Week 144 almanac for PRN-19 ******** ID: 19 Health: 0 Eccentricity: 0.008932590485 Time of Applicability(s): 589824 Orbital Inclination(rad): 0.9789398004 Rate of Right Ascen(r/s): -7.886042771e-09 SQRT(A) (m 1/2): 5153.633789 Right Ascen at Week(rad): -2.240963922 Argument of Perigee(rad): 1.996857244 Mean Anom(rad): 2.329297396 Af0(s): 8.365784912e-05 Af1(s/s): 3.637979e-12 week: 144 ******** Week 144 almanac for PRN-20 ******** ID: 20 Health: 0 Eccentricity: 0.00529384613 Time of Applicability(s): 589824 Orbital Inclination(rad): 0.9416628688 Rate of Right Ascen(r/s): -7.886042771e-09 SQRT(A) (m 1/2): 5153.679688 Right Ascen at Week(rad): -0.4056495349 Argument of Perigee(rad): 3.101795291 Mean Anom(rad): -1.210150179 Af0(s): 0.0004084914795 Af1(s/s): 0 week: 144 ******** Week 144 almanac for PRN-21 ******** ID: 21 Health: 0 Eccentricity: 0.02452325821 Time of Applicability(s): 589824 Orbital Inclination(rad): 0.9589800738 Rate of Right Ascen(r/s): -8.137481816e-09 SQRT(A) (m 1/2): 5153.543457 Right Ascen at Week(rad): -1.377826338 Argument of Perigee(rad): -1.026103194 Mean Anom(rad): 0.09121455734 Af0(s): 0.0001236025879 Af1(s/s): 0 week: 144 ******** Week 144 almanac for PRN-22 ******** ID: 22 Health: 255 Eccentricity: 0.006889343262 Time of Applicability(s): 589824 Orbital Inclination(rad): 0.9384151438 Rate of Right Ascen(r/s): -7.886042771e-09 SQRT(A) (m 1/2): 5153.584961 Right Ascen at Week(rad): -0.3598653017 Argument of Perigee(rad): -0.8558567925 Mean Anom(rad): -1.17413983 Af0(s): -0.0003293556763 Af1(s/s): 7.275958e-12 week: 144 ******** Week 144 almanac for PRN-23 ******** ID: 23 Health: 0 Eccentricity: 0.00195646286 Time of Applicability(s): 589824 Orbital Inclination(rad): 0.9674169681 Rate of Right Ascen(r/s): -7.588887536e-09 SQRT(A) (m 1/2): 5153.658203 Right Ascen at Week(rad): -0.2797406464 Argument of Perigee(rad): 2.912172271 Mean Anom(rad): -2.927610949 Af0(s): 8.29041748e-06 Af1(s/s): -3.637979e-12 week: 144 ******** Week 144 almanac for PRN-24 ******** ID: 24 Health: 0 Eccentricity: 0.01227855682 Time of Applicability(s): 589824 Orbital Inclination(rad): 0.933998957 Rate of Right Ascen(r/s): -8.148910863e-09 SQRT(A) (m 1/2): 5153.628906 Right Ascen at Week(rad): 1.765784161 Argument of Perigee(rad): 0.8011791409 Mean Anom(rad): -1.96550389 Af0(s): 0.0002193192261 Af1(s/s): 0 week: 144 ******** Week 144 almanac for PRN-25 ******** ID: 25 Health: 0 Eccentricity: 0.01036834717 Time of Applicability(s): 589824 Orbital Inclination(rad): 0.9584108231 Rate of Right Ascen(r/s): -7.600316584e-09 SQRT(A) (m 1/2): 5153.680664 Right Ascen at Week(rad): 2.884116451 Argument of Perigee(rad): 0.9721408504 Mean Anom(rad): 2.454542658 Af0(s): 0.0002147971802 Af1(s/s): 7.275958e-12 week: 144 ******** Week 144 almanac for PRN-26 ******** ID: 26 Health: 0 Eccentricity: 0.006778240204 Time of Applicability(s): 589824 Orbital Inclination(rad): 0.9392360632 Rate of Right Ascen(r/s): -7.806039438e-09 SQRT(A) (m 1/2): 5153.635254 Right Ascen at Week(rad): 2.837722895 Argument of Perigee(rad): 0.3500086512 Mean Anom(rad): 1.805671781 Af0(s): 0.0001379223999 Af1(s/s): 3.637979e-12 week: 144 ******** Week 144 almanac for PRN-27 ******** ID: 27 Health: 0 Eccentricity: 0.01001834869 Time of Applicability(s): 589824 Orbital Inclination(rad): 0.9738884496 Rate of Right Ascen(r/s): -7.886042771e-09 SQRT(A) (m 1/2): 5153.604492 Right Ascen at Week(rad): -2.348141841 Argument of Perigee(rad): 0.6298792516 Mean Anom(rad): -0.04418096865 Af0(s): 5.577189941e-05 Af1(s/s): 2.182787e-11 week: 144 ******** Week 144 almanac for PRN-29 ******** ID: 29 Health: 0 Eccentricity: 0.001767158508 Time of Applicability(s): 589824 Orbital Inclination(rad): 0.982223478 Rate of Right Ascen(r/s): -7.863184676e-09 SQRT(A) (m 1/2): 5153.720703 Right Ascen at Week(rad): -2.27293334 Argument of Perigee(rad): 2.292964972 Mean Anom(rad): 0.0606750072 Af0(s): -0.000369300415 Af1(s/s): -3.637979e-12 week: 144 ******** Week 144 almanac for PRN-30 ******** ID: 30 Health: 0 Eccentricity: 0.005422115326 Time of Applicability(s): 589824 Orbital Inclination(rad): 0.9357306775 Rate of Right Ascen(r/s): -8.091765626e-09 SQRT(A) (m 1/2): 5153.524414 Right Ascen at Week(rad): 1.861658335 Argument of Perigee(rad): -2.751928952 Mean Anom(rad): -2.918450881 Af0(s): -0.0004009547363 Af1(s/s): -3.637979e-12 week: 144 ******** Week 144 almanac for PRN-31 ******** ID: 31 Health: 0 Eccentricity: 0.01046180725 Time of Applicability(s): 589824 Orbital Inclination(rad): 0.9547975793 Rate of Right Ascen(r/s): -7.886042771e-09 SQRT(A) (m 1/2): 5153.61084 Right Ascen at Week(rad): 1.86601872 Argument of Perigee(rad): 0.3665165465 Mean Anom(rad): 2.899264886 Af0(s): -0.0001266172852 Af1(s/s): 0 week: 144 ******** Week 144 almanac for PRN-32 ******** ID: 32 Health: 0 Eccentricity: 0.005418777466 Time of Applicability(s): 589824 Orbital Inclination(rad): 0.9578775251 Rate of Right Ascen(r/s): -7.737465153e-09 SQRT(A) (m 1/2): 5153.706543 Right Ascen at Week(rad): 0.786854247 Argument of Perigee(rad): -2.374061847 Mean Anom(rad): 0.63741658 Af0(s): -4.069841309e-05 Af1(s/s): -7.275958e-12 week: 144